Home   Weather   Kerpen   Past weeks

Flag for Germany Past Weather in Kerpen, North Rhine-Westphalia, Germany — Yesterday and Last 2 Weeks

Now
50 °F

Passing clouds.


Feels Like: 46 °F
Forecast: 49 / 52 °F
Wind: 10 mph from West

Location: Noervenich

Current Time: Feb 21, 2017 at 11:08:04 pm

Latest Report: Feb 21, 2017 at 10:20 pm


Visibility: N/A

Pressure: 29.92 "Hg

Humidity: 94%

Dew Point: 48 °F

Location of KerpenLocation

Past Weather in Kerpen — Graph

°F

Kerpen Temperature Yesterday

Maximum temperature yesterday: 52 °F (at 2:20 pm)
Minimum temperature yesterday: 45 °F (at 12:20 am)
Average temperature yesterday: 49 °F

High & Low Weather Summary for the Past Weeks

 TemperatureHumidityPressure
High57 °F (Feb 15, 3:20 pm)100% (Feb 11, 9:20 am)30.51 "Hg (Feb 11, 9:20 am)
Low28 °F (Feb 10, 12:20 am)46% (Feb 14, 2:20 pm)29.95 "Hg (Feb 21, 1:20 am)
Average41 °F80%30.22 "Hg
* Reported Feb 6 9:09 pm — Feb 21 9:20 pm, Kerpen, Weather by CustomWeather, © 2017

Note: Actual official high and low records may vary slightly from our data, if they occured in-between our weather recording intervals... More about our weather records

Advertising

Kerpen Weather History for the Previous 24 Hours

Scroll right to see more
 ConditionsComfort  
Time TempWeatherWind HumidityBarometerVisibility
9:20 pm
Tue, Feb 21
50 °FPassing clouds.10 mph94%29.95 "HgN/A
8:20 pm48 °FPassing clouds.6 mph100%29.98 "HgN/A
7:47 pm48 °FPassing clouds.6 mph100%29.98 "HgN/A
7:20 pm48 °FPassing clouds.3 mph100%29.98 "Hg4 mi
6:48 pm48 °FPassing clouds.2 mph94%29.98 "Hg4 mi
6:20 pm48 °FDrizzle. Fog.5 mph94%29.98 "Hg2 mi
5:50 pm48 °FDrizzle. Fog.9 mph94%30.01 "Hg2 mi
5:20 pm50 °FDrizzle. Partly sunny.10 mph88%29.98 "Hg4 mi
4:20 pm50 °FBroken clouds.12 mph88%29.98 "Hg6 mi
3:46 pm50 °FDrizzle. Broken clouds.12 mph88%30.01 "Hg4 mi
3:20 pm52 °FBroken clouds.13 mph82%30.01 "HgN/A
2:20 pm50 °FLight rain. Broken clouds.9 mph88%30.01 "HgN/A
2:00 pm50 °FBroken clouds.12 mph88%30.01 "Hg5 mi
1:20 pm50 °FLight rain. Broken clouds.12 mph88%30.01 "HgN/A
12:20 pm52 °FLight rain. Partly sunny.15 mph82%30.01 "HgN/A
11:20 am50 °FLight rain. Broken clouds.17 mph88%30.01 "HgN/A
10:20 am52 °FPartly sunny.15 mph88%30.01 "Hg6 mi
9:20 am50 °FBroken clouds.13 mph94%29.98 "Hg5 mi
8:20 am50 °FBroken clouds.10 mph94%29.98 "Hg5 mi
7:20 am48 °FPartly cloudy.9 mph100%29.98 "Hg5 mi
6:50 am48 °FPassing clouds.8 mph94%29.98 "Hg4 mi
6:20 am50 °FPartly cloudy.13 mph88%29.98 "Hg4 mi
5:20 am50 °FPartly cloudy.14 mph94%29.95 "HgN/A
4:20 am50 °FPartly cloudy.14 mph94%29.95 "Hg4 mi
3:20 am50 °FPartly cloudy.20 mph94%29.95 "Hg3 mi
2:20 am50 °FPassing clouds.17 mph100%29.95 "Hg5 mi
1:20 am50 °FPartly cloudy.17 mph100%29.95 "HgN/A
12:20 am52 °FPartly cloudy.18 mph94%29.98 "HgN/A
11:20 pm
Mon, Feb 20
52 °FPartly cloudy.18 mph94%29.98 "Hg5 mi
Weather by CustomWeather, © 2017

See weather overviewHow to use our weather pages